| time (UTC) | temp C | wind direction | speed KPH | gust KPH | rain 1hr cm | rain 24hr cm | rain mn cm | humidity % | barometer mb |
| 20260901143130 | 27 | 275 | 0.0 | 0.0 | 0.00 | 0.00 | 0.00 | 87 | 1014.0 |
| 20260901142626 | 26 | 329 | 1.6 | 3.2 | 0.00 | 0.00 | 0.00 | 88 | 1014.1 |
| 20260901142125 | 27 | 230 | 1.6 | 1.6 | 0.00 | 0.00 | 0.00 | 87 | 1014.1 |
| 20260901141620 | 26 | 173 | 0.0 | 0.0 | 0.00 | 0.00 | 0.00 | 89 | 1014.2 |
| 20260901141114 | 26 | 269 | 3.2 | 4.8 | 0.00 | 0.00 | 0.00 | 90 | 1014.2 |
| 20260901140613 | 26 | 264 | 1.6 | 1.6 | 0.00 | 0.00 | 0.00 | 89 | 1013.9 |
| 20260901140112 | 26 | 241 | 0.0 | 1.6 | 0.00 | 0.00 | 0.00 | 90 | 1014.1 |
| 20260901135612 | 26 | 262 | 8.0 | 11.3 | 0.00 | 0.00 | 0.00 | 90 | 1014.1 |
| 20260901135107 | 26 | 241 | 0.0 | 0.0 | 0.00 | 0.00 | 0.00 | 90 | 1014.0 |
| 20260901134603 | 26 | 294 | 0.0 | 0.0 | 0.00 | 0.00 | 0.00 | 90 | 1014.0 |
| 20260901134058 | 25 | 273 | 0.0 | 0.0 | 0.00 | 0.00 | 0.00 | 91 | 1013.9 |
| 20260901133557 | 25 | 259 | 1.6 | 3.2 | 0.00 | 0.00 | 0.00 | 92 | 1014.2 |
| 20260901133056 | 25 | 277 | 0.0 | 1.6 | 0.00 | 0.00 | 0.00 | 93 | 1014.2 |
| 20260901132550 | 24 | 313 | 3.2 | 3.2 | 0.00 | 0.00 | 0.00 | 94 | 1014.2 |
| 20260901132045 | 24 | 254 | 1.6 | 1.6 | 0.00 | 0.00 | 0.00 | 94 | 1014.2 |
| 20260901131539 | 24 | 276 | 4.8 | 4.8 | 0.00 | 0.00 | 0.00 | 94 | 1014.2 |
| 20260901131034 | 24 | 243 | 6.4 | 8.0 | 0.00 | 0.00 | 0.00 | 94 | 1014.3 |
| 20260901130534 | 24 | 226 | 4.8 | 4.8 | 0.00 | 0.00 | 0.00 | 94 | 1014.6 |
| 20260901130033 | 24 | 279 | 4.8 | 8.0 | 0.00 | 0.00 | 0.00 | 95 | 1014.4 |
| 20260901125531 | 24 | 319 | 1.6 | 1.6 | 0.00 | 0.00 | 0.00 | 96 | 1014.4 |
| 20260901125027 | 23 | 291 | 0.0 | 0.0 | 0.00 | 0.00 | 0.00 | 98 | 1014.3 |
| 20260901124522 | 23 | 298 | 0.0 | 0.0 | 0.00 | 0.00 | 0.00 | 99 | 1014.2 |
| 20260901124021 | 23 | 273 | 3.2 | 3.2 | 0.00 | 0.00 | 0.00 | 99 | 1014.1 |
| 20260901123516 | 22 | 335 | 0.0 | 0.0 | 0.00 | 0.00 | 0.00 | 99 | 1014.1 |
| 20260901123016 | 22 | 296 | 0.0 | 0.0 | 0.00 | 0.00 | 0.00 | 99 | 1014.0 |
| 20260901122514 | 22 | 289 | 0.0 | 0.0 | 0.00 | 0.00 | 0.00 | 99 | 1014.1 |
| 20260901122014 | 22 | 274 | 0.0 | 0.0 | 0.00 | 0.00 | 0.00 | 99 | 1014.0 |
| 20260901121508 | 22 | 264 | 0.0 | 0.0 | 0.00 | 0.00 | 0.00 | 99 | 1013.7 |
| 20260901121003 | 22 | 307 | 0.0 | 0.0 | 0.00 | 0.00 | 0.00 | 99 | 1013.9 |
| 20260901120458 | 21 | 299 | 0.0 | 0.0 | 0.00 | 0.00 | 0.00 | 99 | 1014.0 |
| 20260901115953 | 21 | 304 | 0.0 | 0.0 | 0.00 | 0.00 | 0.00 | 99 | 1013.7 |
| 20260901115448 | 21 | 307 | 0.0 | 0.0 | 0.00 | 0.00 | 0.00 | 99 | 1013.6 |
| 20260901114946 | 21 | 289 | 0.0 | 0.0 | 0.00 | 0.00 | 0.00 | 99 | 1014.0 |
| 20260901114441 | 21 | 306 | 0.0 | 0.0 | 0.00 | 0.00 | 0.00 | 99 | 1013.8 |
| 20260901113938 | 21 | 324 | 0.0 | 0.0 | 0.00 | 0.00 | 0.00 | 99 | 1013.7 |
| 20260901113438 | 21 | 308 | 0.0 | 0.0 | 0.00 | 0.00 | 0.00 | 99 | 1013.6 |
| 20260901112928 | 21 | 284 | 0.0 | 0.0 | 0.00 | 0.00 | 0.00 | 99 | 1013.7 |
| 20260901112423 | 21 | 295 | 0.0 | 0.0 | 0.00 | 0.00 | 0.00 | 99 | 1013.4 |
| 20260901111918 | 21 | 289 | 0.0 | 0.0 | 0.00 | 0.00 | 0.00 | 99 | 1013.3 |
| 20260901111416 | 21 | 295 | 0.0 | 0.0 | 0.00 | 0.00 | 0.00 | 99 | 1013.3 |
| 20260901110915 | 21 | 292 | 0.0 | 0.0 | 0.00 | 0.00 | 0.00 | 99 | 1013.4 |
| 20260901110411 | 21 | 295 | 0.0 | 0.0 | 0.00 | 0.00 | 0.00 | 99 | 1013.6 |
| 20260901105907 | 21 | 243 | 0.0 | 0.0 | 0.00 | 0.00 | 0.00 | 99 | 1013.2 |
| 20260901105403 | 21 | 275 | 0.0 | 0.0 | 0.00 | 0.00 | 0.00 | 99 | 1013.6 |
| 20260901104858 | 21 | 284 | 0.0 | 0.0 | 0.00 | 0.00 | 0.00 | 99 | 1013.3 |
| 20260901104353 | 21 | 287 | 0.0 | 0.0 | 0.00 | 0.00 | 0.00 | 99 | 1013.2 |
| 20260901103849 | 21 | 283 | 0.0 | 0.0 | 0.00 | 0.00 | 0.00 | 99 | 1013.5 |
| 20260901103348 | 21 | 285 | 0.0 | 0.0 | 0.00 | 0.00 | 0.00 | 99 | 1013.4 |
| 20260901102843 | 21 | 286 | 0.0 | 0.0 | 0.00 | 0.00 | 0.00 | 99 | 1013.3 |
| 20260901102337 | 21 | 282 | 0.0 | 0.0 | 0.00 | 0.00 | 0.00 | 99 | 1013.3 |
| 20260901101833 | 21 | 282 | 0.0 | 0.0 | 0.00 | 0.00 | 0.00 | 99 | 1013.4 |
| 20260901101333 | 21 | 284 | 0.0 | 0.0 | 0.00 | 0.00 | 0.00 | 99 | 1013.5 |
| 20260901100827 | 21 | 269 | 0.0 | 0.0 | 0.00 | 0.00 | 0.00 | 99 | 1013.5 |
| 20260901100322 | 21 | 286 | 0.0 | 0.0 | 0.00 | 0.00 | 0.00 | 99 | 1013.4 |
| 20260901095820 | 21 | 276 | 0.0 | 1.6 | 0.00 | 0.00 | 0.00 | 99 | 1013.6 |
| 20260901095318 | 21 | 290 | 0.0 | 0.0 | 0.00 | 0.00 | 0.00 | 99 | 1013.4 |
| 20260901094813 | 21 | 294 | 0.0 | 0.0 | 0.00 | 0.00 | 0.00 | 99 | 1013.4 |
| 20260901094307 | 21 | 288 | 0.0 | 0.0 | 0.00 | 0.00 | 0.00 | 99 | 1013.1 |
| 20260901093802 | 21 | 279 | 0.0 | 0.0 | 0.00 | 0.00 | 0.00 | 99 | 1013.3 |
| 20260901093301 | 21 | 275 | 0.0 | 1.6 | 0.00 | 0.00 | 0.00 | 99 | 1013.3 |
| 20260901092757 | 21 | 269 | 0.0 | 0.0 | 0.00 | 0.00 | 0.00 | 99 | 1013.3 |
| 20260901092253 | 21 | 291 | 0.0 | 0.0 | 0.00 | 0.00 | 0.00 | 99 | 1013.2 |
| 20260901091749 | 21 | 289 | 0.0 | 0.0 | 0.00 | 0.00 | 0.00 | 99 | 1013.2 |
| 20260901091244 | 21 | 285 | 0.0 | 0.0 | 0.00 | 0.00 | 0.00 | 99 | 1013.4 |
| 20260901090744 | 21 | 238 | 0.0 | 0.0 | 0.00 | 0.00 | 0.00 | 99 | 1013.3 |
| 20260901090239 | 21 | 287 | 0.0 | 0.0 | 0.00 | 0.00 | 0.00 | 99 | 1013.3 |
| 20260901085735 | 21 | 270 | 0.0 | 0.0 | 0.00 | 0.00 | 0.00 | 99 | 1013.4 |
| 20260901085230 | 21 | 254 | 0.0 | 0.0 | 0.00 | 0.00 | 0.00 | 99 | 1013.4 |
| 20260901084726 | 21 | 279 | 0.0 | 0.0 | 0.00 | 0.00 | 0.00 | 99 | 1013.4 |
| 20260901084222 | 21 | 292 | 0.0 | 0.0 | 0.00 | 0.00 | 0.00 | 99 | 1013.2 |
| 20260901083717 | 21 | 287 | 0.0 | 0.0 | 0.00 | 0.00 | 0.00 | 99 | 1013.2 |
| 20260901083216 | 21 | 311 | 0.0 | 0.0 | 0.00 | 0.00 | 0.00 | 99 | 1013.1 |
| 20260901082715 | 21 | 284 | 0.0 | 0.0 | 0.00 | 0.00 | 0.00 | 99 | 1013.0 |
| 20260901082211 | 21 | 336 | 0.0 | 0.0 | 0.00 | 0.00 | 0.00 | 99 | 1013.0 |
| 20260901081706 | 21 | 285 | 0.0 | 0.0 | 0.00 | 0.00 | 0.00 | 99 | 1013.2 |
| 20260901081206 | 21 | 293 | 0.0 | 0.0 | 0.00 | 0.00 | 0.00 | 99 | 1013.0 |
| 20260901080701 | 21 | 284 | 0.0 | 0.0 | 0.00 | 0.00 | 0.00 | 99 | 1013.0 |
| 20260901080159 | 21 | 284 | 0.0 | 0.0 | 0.00 | 0.00 | 0.00 | 99 | 1013.1 |
| 20260901075654 | 21 | 297 | 0.0 | 0.0 | 0.00 | 0.00 | 0.00 | 99 | 1013.1 |
| 20260901075149 | 21 | 280 | 0.0 | 0.0 | 0.00 | 0.00 | 0.00 | 99 | 1013.0 |
| 20260901074649 | 21 | 290 | 0.0 | 0.0 | 0.00 | 0.00 | 0.00 | 99 | 1012.7 |
| 20260901074144 | 21 | 279 | 0.0 | 0.0 | 0.00 | 0.00 | 0.00 | 99 | 1013.2 |
| 20260901073640 | 21 | 279 | 0.0 | 0.0 | 0.00 | 0.00 | 0.00 | 99 | 1012.9 |
| 20260901073135 | 21 | 272 | 0.0 | 0.0 | 0.00 | 0.00 | 0.00 | 99 | 1013.0 |
| 20260901072630 | 21 | 283 | 0.0 | 0.0 | 0.00 | 0.00 | 0.00 | 99 | 1013.2 |
| 20260901072125 | 21 | 272 | 0.0 | 0.0 | 0.00 | 0.00 | 0.00 | 99 | 1012.7 |
| 20260901071625 | 21 | 285 | 0.0 | 0.0 | 0.00 | 0.00 | 0.00 | 99 | 1013.1 |
| 20260901071124 | 21 | 287 | 0.0 | 0.0 | 0.00 | 0.00 | 0.00 | 99 | 1013.1 |
| 20260901070619 | 21 | 289 | 0.0 | 0.0 | 0.00 | 0.00 | 0.00 | 99 | 1013.1 |
| 20260901070114 | 21 | 283 | 0.0 | 0.0 | 0.00 | 0.00 | 0.00 | 99 | 1013.1 |
| 20260901065603 | 21 | 291 | 0.0 | 0.0 | 0.00 | 0.00 | 0.00 | 99 | 1013.2 |
| 20260901065102 | 21 | 314 | 0.0 | 0.0 | 0.00 | 0.00 | 0.00 | 99 | 1013.1 |
| 20260901064555 | 21 | 265 | 0.0 | 0.0 | 0.00 | 0.00 | 0.00 | 99 | 1013.0 |
| 20260901064050 | 21 | 274 | 0.0 | 0.0 | 0.00 | 0.00 | 0.00 | 99 | 1013.1 |
| 20260901063547 | 21 | 293 | 0.0 | 0.0 | 0.00 | 0.00 | 0.00 | 99 | 1013.2 |
| 20260901063043 | 21 | 292 | 0.0 | 0.0 | 0.00 | 0.00 | 0.00 | 99 | 1012.9 |
| 20260901062539 | 22 | 292 | 0.0 | 0.0 | 0.00 | 0.00 | 0.00 | 99 | 1013.2 |
| 20260901062035 | 22 | 292 | 0.0 | 0.0 | 0.00 | 0.00 | 0.00 | 99 | 1013.2 |
| 20260901061531 | 22 | 283 | 0.0 | 0.0 | 0.00 | 0.00 | 0.00 | 99 | 1013.1 |
| 20260901061031 | 22 | 291 | 0.0 | 0.0 | 0.00 | 0.00 | 0.00 | 99 | 1013.3 |
| 20260901060525 | 22 | 283 | 0.0 | 0.0 | 0.00 | 0.00 | 0.00 | 99 | 1013.3 |
| 20260901060020 | 22 | 313 | 0.0 | 0.0 | 0.00 | 0.00 | 0.00 | 99 | 1013.5 |
| 20260901055516 | 22 | 280 | 0.0 | 0.0 | 0.00 | 0.00 | 0.00 | 99 | 1013.0 |
| 20260901055013 | 22 | 298 | 0.0 | 0.0 | 0.00 | 0.00 | 0.00 | 98 | 1013.1 |
| 20260901054509 | 22 | 292 | 0.0 | 0.0 | 0.00 | 0.00 | 0.00 | 98 | 1013.4 |
| 20260901054005 | 22 | 297 | 0.0 | 0.0 | 0.00 | 0.00 | 0.00 | 98 | 1013.3 |
| 20260901053501 | 22 | 208 | 1.6 | 1.6 | 0.00 | 0.00 | 0.00 | 98 | 1013.3 |
| 20260901052956 | 22 | 298 | 0.0 | 0.0 | 0.00 | 0.00 | 0.00 | 98 | 1013.3 |
| 20260901052452 | 22 | 278 | 0.0 | 0.0 | 0.00 | 0.00 | 0.00 | 98 | 1013.3 |
| 20260901051950 | 22 | 261 | 1.6 | 1.6 | 0.00 | 0.00 | 0.00 | 98 | 1013.5 |
| 20260901051446 | 22 | 304 | 1.6 | 1.6 | 0.00 | 0.00 | 0.00 | 98 | 1013.3 |
| 20260901050945 | 22 | 332 | 0.0 | 0.0 | 0.00 | 0.00 | 0.00 | 98 | 1013.4 |
| 20260901050441 | 22 | 321 | 0.0 | 0.0 | 0.00 | 0.00 | 0.00 | 97 | 1013.3 |
| 20260901045941 | 22 | 308 | 0.0 | 0.0 | 0.00 | 0.00 | 0.00 | 97 | 1013.3 |
| 20260901045436 | 22 | 313 | 0.0 | 0.0 | 0.00 | 0.00 | 0.00 | 97 | 1013.4 |
| 20260901044931 | 22 | 304 | 0.0 | 0.0 | 0.00 | 0.00 | 0.00 | 96 | 1013.3 |
| 20260901044427 | 22 | 322 | 0.0 | 0.0 | 0.00 | 0.00 | 0.00 | 96 | 1013.3 |
| 20260901043923 | 22 | 294 | 0.0 | 0.0 | 0.00 | 0.00 | 0.00 | 95 | 1013.3 |
| 20260901043419 | 22 | 283 | 0.0 | 0.0 | 0.00 | 0.00 | 0.00 | 95 | 1013.4 |
| 20260901042918 | 22 | 273 | 0.0 | 0.0 | 0.00 | 0.00 | 0.00 | 95 | 1013.4 |
| 20260901042413 | 22 | 297 | 0.0 | 0.0 | 0.00 | 0.00 | 0.00 | 95 | 1013.5 |
| 20260901041908 | 22 | 318 | 0.0 | 0.0 | 0.00 | 0.00 | 0.00 | 94 | 1013.3 |
| 20260901041403 | 22 | 281 | 0.0 | 0.0 | 0.00 | 0.00 | 0.00 | 94 | 1013.4 |
| 20260901040902 | 22 | 295 | 0.0 | 0.0 | 0.00 | 0.00 | 0.00 | 94 | 1013.4 |
| 20260901040402 | 22 | 318 | 0.0 | 1.6 | 0.00 | 0.00 | 0.00 | 93 | 1013.5 |
| 20260901035856 | 22 | 307 | 1.6 | 1.6 | 0.00 | 0.20 | 0.20 | 94 | 1013.3 |
| 20260901035354 | 22 | 312 | 0.0 | 0.0 | 0.00 | 0.20 | 0.20 | 94 | 1013.2 |
| 20260901034853 | 22 | 307 | 0.0 | 0.0 | 0.00 | 0.20 | 0.20 | 93 | 1013.2 |
| 20260901034348 | 22 | 221 | 0.0 | 0.0 | 0.00 | 0.20 | 0.20 | 93 | 1013.3 |
| 20260901033843 | 22 | 285 | 1.6 | 1.6 | 0.00 | 0.20 | 0.20 | 93 | 1013.4 |
| 20260901033342 | 22 | 299 | 0.0 | 0.0 | 0.00 | 0.20 | 0.20 | 92 | 1013.5 |
| 20260901032841 | 22 | 259 | 0.0 | 0.0 | 0.00 | 0.20 | 0.20 | 92 | 1013.6 |
| 20260901032341 | 22 | 312 | 0.0 | 0.0 | 0.00 | 0.20 | 0.20 | 91 | 1013.4 |
| 20260901031836 | 23 | 294 | 1.6 | 1.6 | 0.00 | 0.20 | 0.20 | 91 | 1013.5 |
| 20260901031332 | 23 | 279 | 0.0 | 0.0 | 0.00 | 0.20 | 0.20 | 90 | 1013.3 |
| 20260901030831 | 23 | 291 | 1.6 | 3.2 | 0.00 | 0.20 | 0.20 | 90 | 1013.7 |
| 20260901030327 | 23 | 287 | 1.6 | 1.6 | 0.00 | 0.20 | 0.20 | 90 | 1013.5 |
| 20260901025826 | 23 | 296 | 4.8 | 4.8 | 0.00 | 0.20 | 0.20 | 90 | 1013.3 |
| 20260901025321 | 23 | 276 | 3.2 | 3.2 | 0.00 | 0.20 | 0.20 | 89 | 1013.3 |
| 20260901024816 | 22 | 261 | 3.2 | 3.2 | 0.00 | 0.20 | 0.20 | 89 | 1013.1 |
| 20260901024315 | 22 | 275 | 0.0 | 1.6 | 0.00 | 0.20 | 0.20 | 90 | 1013.3 |
| 20260901023813 | 22 | 238 | 0.0 | 0.0 | 0.00 | 0.20 | 0.20 | 89 | 1013.0 |
| 20260901023308 | 23 | 322 | 0.0 | 0.0 | 0.00 | 0.20 | 0.20 | 89 | 1013.0 |
| 20260901022804 | 23 | 252 | 0.0 | 1.6 | 0.00 | 0.20 | 0.20 | 88 | 1013.2 |
| 20260901022300 | 23 | 284 | 0.0 | 0.0 | 0.00 | 0.20 | 0.20 | 88 | 1013.2 |
| 20260901021754 | 23 | 280 | 1.6 | 1.6 | 0.00 | 0.20 | 0.20 | 87 | 1013.4 |
| 20260901021250 | 22 | 303 | 1.6 | 3.2 | 0.00 | 0.20 | 0.20 | 88 | 1013.2 |
| 20260901020745 | 23 | 25 | 0.0 | 0.0 | 0.00 | 0.20 | 0.20 | 87 | 1013.3 |
| 20260901020240 | 23 | 300 | 3.2 | 4.8 | 0.00 | 0.20 | 0.20 | 87 | 1013.0 |
| 20260901015735 | 23 | 274 | 0.0 | 0.0 | 0.00 | 0.20 | 0.20 | 87 | 1013.2 |
| 20260901015231 | 23 | 286 | 1.6 | 3.2 | 0.00 | 0.20 | 0.20 | 86 | 1013.4 |
| 20260901014730 | 23 | 264 | 1.6 | 3.2 | 0.00 | 0.20 | 0.20 | 86 | 1013.3 |
| 20260901014226 | 22 | 309 | 1.6 | 3.2 | 0.00 | 0.20 | 0.20 | 87 | 1013.3 |
| 20260901013721 | 22 | 298 | 0.0 | 0.0 | 0.00 | 0.20 | 0.20 | 87 | 1013.2 |
| 20260901013217 | 22 | 276 | 0.0 | 0.0 | 0.00 | 0.20 | 0.20 | 87 | 1013.2 |
| 20260901012713 | 22 | 324 | 1.6 | 1.6 | 0.00 | 0.20 | 0.20 | 86 | 1013.2 |
| 20260901012213 | 22 | 231 | 4.8 | 4.8 | 0.00 | 0.20 | 0.20 | 87 | 1013.0 |
| 20260901011709 | 22 | 297 | 0.0 | 0.0 | 0.00 | 0.20 | 0.20 | 88 | 1013.1 |
| 20260901011208 | 22 | 260 | 1.6 | 3.2 | 0.00 | 0.20 | 0.20 | 86 | 1013.0 |
| 20260901010702 | 22 | 270 | 0.0 | 1.6 | 0.00 | 0.20 | 0.20 | 88 | 1013.0 |
| 20260901010157 | 22 | 346 | 0.0 | 0.0 | 0.00 | 0.20 | 0.20 | 89 | 1012.9 |
| 20260901005656 | 22 | 267 | 0.0 | 0.0 | 0.00 | 0.20 | 0.20 | 89 | 1012.6 |
| 20260901005152 | 22 | 303 | 0.0 | 0.0 | 0.00 | 0.20 | 0.20 | 89 | 1013.0 |
| 20260901004651 | 22 | 284 | 0.0 | 0.0 | 0.00 | 0.20 | 0.20 | 88 | 1012.7 |
| 20260901004145 | 22 | 305 | 0.0 | 0.0 | 0.00 | 0.20 | 0.20 | 87 | 1012.7 |
| 20260901003635 | 22 | 286 | 0.0 | 0.0 | 0.00 | 0.20 | 0.20 | 87 | 1012.5 |
| 20260901003134 | 23 | 281 | 0.0 | 0.0 | 0.00 | 0.20 | 0.20 | 86 | 1012.7 |
| 20260901002634 | 23 | 298 | 3.2 | 3.2 | 0.00 | 0.20 | 0.20 | 86 | 1012.4 |
| 20260901002128 | 23 | 326 | 0.0 | 0.0 | 0.00 | 0.20 | 0.20 | 85 | 1012.6 |
| 20260901001624 | 23 | 294 | 0.0 | 0.0 | 0.00 | 0.20 | 0.20 | 85 | 1012.3 |
| 20260901001119 | 23 | 333 | 0.0 | 0.0 | 0.00 | 0.20 | 0.20 | 86 | 1012.4 |
| 20260901000614 | 23 | 277 | 0.0 | 0.0 | 0.00 | 0.20 | 0.20 | 86 | 1012.1 |
| 20260901000109 | 23 | 299 | 0.0 | 0.0 | 0.00 | 0.20 | 0.20 | 86 | 1012.2 |
| 20260831235603 | 23 | 258 | 1.6 | 1.6 | 0.00 | 0.20 | 0.20 | 85 | 1012.0 |
| 20260831235059 | 23 | 231 | 0.0 | 0.0 | 0.00 | 0.20 | 0.20 | 85 | 1012.1 |
| 20260831234552 | 23 | 287 | 0.0 | 0.0 | 0.00 | 0.20 | 0.20 | 84 | 1012.0 |
| 20260831234048 | 23 | 321 | 1.6 | 3.2 | 0.00 | 0.20 | 0.20 | 84 | 1012.2 |
| 20260831233543 | 23 | 52 | 0.0 | 1.6 | 0.00 | 0.20 | 0.20 | 84 | 1012.0 |
| 20260831233039 | 24 | 319 | 1.6 | 1.6 | 0.00 | 0.20 | 0.20 | 83 | 1011.9 |
| 20260831232534 | 24 | 299 | 0.0 | 1.6 | 0.00 | 0.20 | 0.20 | 83 | 1012.0 |
| 20260831232030 | 24 | 81 | 0.0 | 1.6 | 0.00 | 0.20 | 0.20 | 83 | 1012.2 |
| 20260831231526 | 25 | 197 | 1.6 | 1.6 | 0.00 | 0.20 | 0.20 | 83 | 1012.3 |
| 20260831231021 | 25 | 292 | 1.6 | 3.2 | 0.00 | 0.20 | 0.20 | 81 | 1012.0 |
| 20260831230516 | 25 | 351 | 0.0 | 0.0 | 0.00 | 0.20 | 0.20 | 81 | 1012.3 |
| 20260831230011 | 25 | 278 | 0.0 | 1.6 | 0.00 | 0.20 | 0.20 | 82 | 1012.3 |
| 20260831225507 | 24 | 312 | 1.6 | 1.6 | 0.00 | 0.20 | 0.20 | 83 | 1012.2 |
| 20260831225006 | 25 | 344 | 0.0 | 0.0 | 0.00 | 0.20 | 0.20 | 83 | 1012.4 |
| 20260831224501 | 25 | 46 | 1.6 | 3.2 | 0.00 | 0.20 | 0.20 | 81 | 1012.5 |
| 20260831223956 | 25 | 87 | 3.2 | 3.2 | 0.00 | 0.20 | 0.20 | 78 | 1012.9 |
| 20260831223452 | 26 | 307 | 1.6 | 1.6 | 0.00 | 0.20 | 0.20 | 78 | 1013.0 |
| 20260831222948 | 26 | 313 | 1.6 | 3.2 | 0.00 | 0.20 | 0.20 | 79 | 1012.6 |
| 20260831222444 | 26 | 292 | 1.6 | 3.2 | 0.00 | 0.20 | 0.20 | 79 | 1012.9 |
| 20260831221944 | 25 | 87 | 0.0 | 1.6 | 0.00 | 0.20 | 0.20 | 79 | 1013.0 |
| 20260831221440 | 26 | 134 | 1.6 | 3.2 | 0.00 | 0.20 | 0.20 | 80 | 1012.7 |
| 20260831220935 | 26 | 189 | 3.2 | 3.2 | 0.00 | 0.20 | 0.20 | 79 | 1013.0 |
| 20260831220430 | 25 | 224 | 3.2 | 4.8 | 0.00 | 0.20 | 0.20 | 80 | 1013.1 |
| 20260831215925 | 25 | 228 | 4.8 | 4.8 | 0.00 | 0.20 | 0.20 | 82 | 1012.7 |
| 20260831215421 | 25 | 205 | 1.6 | 3.2 | 0.00 | 0.20 | 0.20 | 84 | 1013.2 |
| 20260831214917 | 25 | 182 | 8.0 | 9.7 | 0.30 | 0.20 | 0.20 | 85 | 1013.2 |
| 20260831214414 | 26 | 167 | 0.0 | 1.6 | 0.30 | 0.20 | 0.20 | 82 | 1013.4 |
| 20260831213910 | 25 | 208 | 1.6 | 3.2 | 0.00 | 0.15 | 0.15 | 82 | 1013.3 |
| 20260831213406 | 25 | 286 | 1.6 | 3.2 | 0.00 | 0.15 | 0.15 | 84 | 1013.3 |
| 20260831212901 | 25 | 246 | 3.2 | 3.2 | 0.00 | 0.15 | 0.15 | 86 | 1013.6 |
| 20260831212357 | 25 | 293 | 1.6 | 1.6 | 0.00 | 0.15 | 0.15 | 88 | 1013.3 |
| 20260831211856 | 25 | 194 | 4.8 | 4.8 | 0.00 | 0.15 | 0.15 | 88 | 1013.6 |
| 20260831211356 | 25 | 300 | 1.6 | 1.6 | 0.00 | 0.15 | 0.15 | 88 | 1013.4 |
| 20260831210856 | 25 | 294 | 1.6 | 3.2 | 0.00 | 0.15 | 0.15 | 88 | 1013.4 |
| 20260831210351 | 25 | 182 | 3.2 | 3.2 | 0.00 | 0.15 | 0.15 | 88 | 1013.4 |
| 20260831205847 | 25 | 250 | 1.6 | 1.6 | 0.00 | 0.15 | 0.15 | 90 | 1013.3 |
| 20260831205343 | 25 | 293 | 3.2 | 3.2 | 0.00 | 0.15 | 0.15 | 89 | 1013.9 |
| 20260831204837 | 25 | 307 | 0.0 | 1.6 | 0.00 | 0.15 | 0.15 | 90 | 1013.5 |
| 20260831204336 | 25 | 175 | 1.6 | 4.8 | 0.00 | 0.15 | 0.15 | 91 | 1013.8 |
| 20260831203836 | 25 | 28 | 0.0 | 1.6 | 0.00 | 0.15 | 0.15 | 91 | 1013.6 |
| 20260831203331 | 25 | 182 | 1.6 | 8.0 | 0.00 | 0.15 | 0.15 | 90 | 1013.7 |
| 20260831202829 | 25 | 178 | 0.0 | 0.0 | 0.00 | 0.15 | 0.15 | 90 | 1013.5 |
| 20260831202325 | 25 | 216 | 4.8 | 4.8 | 0.00 | 0.15 | 0.15 | 90 | 1013.7 |
| 20260831201824 | 25 | 348 | 3.2 | 3.2 | 0.00 | 0.15 | 0.15 | 90 | 1013.7 |
| 20260831201323 | 25 | 231 | 3.2 | 3.2 | 0.00 | 0.15 | 0.15 | 89 | 1013.8 |
| 20260831200819 | 25 | 303 | 1.6 | 1.6 | 0.00 | 0.15 | 0.15 | 89 | 1013.6 |
| 20260831200314 | 25 | 76 | 0.0 | 0.0 | 0.00 | 0.15 | 0.15 | 89 | 1013.7 |
| 20260831195809 | 25 | 238 | 3.2 | 4.8 | 0.00 | 0.15 | 0.15 | 88 | 1013.7 |
| 20260831195306 | 25 | 315 | 1.6 | 1.6 | 0.00 | 0.15 | 0.15 | 88 | 1013.9 |
| 20260831194800 | 25 | 223 | 0.0 | 0.0 | 0.00 | 0.15 | 0.15 | 88 | 1014.2 |
| 20260831194255 | 25 | 305 | 1.6 | 3.2 | 0.00 | 0.15 | 0.15 | 87 | 1014.3 |
| 20260831193749 | 25 | 115 | 1.6 | 1.6 | 0.00 | 0.15 | 0.15 | 87 | 1014.4 |
| 20260831193244 | 25 | 54 | 1.6 | 1.6 | 0.00 | 0.15 | 0.15 | 86 | 1014.4 |
| 20260831192739 | 25 | 233 | 4.8 | 8.0 | 0.00 | 0.15 | 0.15 | 85 | 1014.7 |
| 20260831192234 | 25 | 64 | 4.8 | 8.0 | 0.00 | 0.15 | 0.15 | 85 | 1014.9 |
| 20260831191730 | 25 | 49 | 11.3 | 16.1 | 0.00 | 0.15 | 0.15 | 84 | 1014.8 |
| 20260831191226 | 25 | 53 | 1.6 | 8.0 | 0.00 | 0.15 | 0.15 | 87 | 1014.7 |
| 20260831190721 | 24 | 74 | 1.6 | 3.2 | 0.00 | 0.15 | 0.15 | 88 | 1014.9 |
| 20260831190221 | 23 | 148 | 4.8 | 8.0 | 0.00 | 0.15 | 0.15 | 91 | 1015.0 |
| 20260831185716 | 23 | 84 | 1.6 | 3.2 | 0.00 | 0.15 | 0.15 | 94 | 1015.2 |
| 20260831185211 | 22 | 89 | 0.0 | 0.0 | 0.00 | 0.15 | 0.15 | 97 | 1015.4 |
| 20260831184710 | 22 | 67 | 4.8 | 8.0 | 0.00 | 0.15 | 0.15 | 97 | 1015.5 |
| 20260831184207 | 22 | 69 | 1.6 | 3.2 | 0.00 | 0.15 | 0.15 | 98 | 1015.8 |
| 20260831183705 | 22 | 56 | 4.8 | 8.0 | 0.00 | 0.15 | 0.15 | 99 | 1015.6 |
| 20260831183200 | 22 | 96 | 1.6 | 3.2 | 0.00 | 0.15 | 0.15 | 99 | 1015.6 |
| 20260831182659 | 22 | 65 | 3.2 | 8.0 | 0.00 | 0.15 | 0.15 | 99 | 1015.6 |
| 20260831182155 | 22 | 71 | 3.2 | 4.8 | 0.00 | 0.15 | 0.15 | 99 | 1015.9 |
| 20260831181649 | 22 | 73 | 8.0 | 8.0 | 0.00 | 0.15 | 0.15 | 99 | 1015.7 |
| 20260831181144 | 21 | 89 | 4.8 | 4.8 | 0.00 | 0.15 | 0.15 | 99 | 1015.8 |
| 20260831180639 | 21 | 62 | 6.4 | 9.7 | 0.00 | 0.15 | 0.15 | 99 | 1015.7 |
| 20260831180134 | 22 | 81 | 0.0 | 1.6 | 0.00 | 0.15 | 0.15 | 99 | 1015.7 |
| 20260831175628 | 22 | 62 | 1.6 | 3.2 | 0.00 | 0.15 | 0.15 | 99 | 1015.7 |
| 20260831175126 | 22 | 93 | 3.2 | 4.8 | 0.00 | 0.15 | 0.15 | 99 | 1015.9 |
| 20260831174625 | 22 | 38 | 0.0 | 0.0 | 0.00 | 0.15 | 0.15 | 99 | 1015.7 |
| 20260831174120 | 22 | 45 | 0.0 | 0.0 | 0.00 | 0.15 | 0.15 | 99 | 1015.4 |
| 20260831173619 | 22 | 45 | 0.0 | 0.0 | 0.00 | 0.15 | 0.15 | 99 | 1015.5 |
| 20260831173115 | 22 | 212 | 0.0 | 0.0 | 0.00 | 0.15 | 0.15 | 99 | 1015.1 |
| 20260831172615 | 21 | 313 | 0.0 | 0.0 | 0.00 | 0.15 | 0.15 | 99 | 1015.2 |
| 20260831172114 | 21 | 288 | 0.0 | 0.0 | 0.00 | 0.15 | 0.15 | 99 | 1015.5 |
| 20260831171610 | 21 | 327 | 0.0 | 0.0 | 0.00 | 0.15 | 0.15 | 99 | 1015.1 |
| 20260831171108 | 21 | 30 | 0.0 | 0.0 | 0.00 | 0.15 | 0.15 | 99 | 1015.5 |
| 20260831170603 | 21 | 84 | 1.6 | 3.2 | 0.00 | 0.15 | 0.15 | 99 | 1015.5 |
| 20260831170101 | 21 | 243 | 0.0 | 0.0 | 0.00 | 0.15 | 0.15 | 99 | 1015.2 |
| 20260831165555 | 21 | 3 | 0.0 | 0.0 | 0.00 | 0.15 | 0.15 | 99 | 1015.1 |
| 20260831165052 | 21 | 41 | 0.0 | 0.0 | 0.00 | 0.15 | 0.15 | 99 | 1015.3 |
| 20260831164548 | 21 | 75 | 0.0 | 0.0 | 0.00 | 0.15 | 0.15 | 99 | 1015.3 |
| 20260831164043 | 21 | 49 | 0.0 | 0.0 | 0.00 | 0.15 | 0.15 | 99 | 1015.3 |
| 20260831163537 | 21 | 352 | 0.0 | 0.0 | 0.00 | 0.15 | 0.15 | 99 | 1015.5 |
| 20260831163033 | 21 | 78 | 0.0 | 0.0 | 0.00 | 0.15 | 0.15 | 99 | 1015.4 |
| 20260831162532 | 21 | 329 | 0.0 | 0.0 | 0.00 | 0.15 | 0.15 | 99 | 1015.7 |
| 20260831162030 | 21 | 275 | 0.0 | 0.0 | 0.00 | 0.15 | 0.15 | 99 | 1015.8 |
| 20260831161527 | 21 | 307 | 0.0 | 0.0 | 0.00 | 0.15 | 0.15 | 99 | 1016.1 |
| 20260831161023 | 21 | 285 | 0.0 | 0.0 | 0.13 | 0.15 | 0.15 | 99 | 1016.2 |
| 20260831160522 | 21 | 275 | 0.0 | 0.0 | 0.30 | 0.15 | 0.15 | 99 | 1016.6 |
| 20260831160018 | 21 | 254 | 0.0 | 0.0 | 0.36 | 0.13 | 0.13 | 99 | 1017.1 |
| 20260831155512 | 21 | 353 | 0.0 | 0.0 | 0.48 | 0.10 | 0.10 | 99 | 1016.9 |
| 20260831155007 | 21 | 214 | 1.6 | 1.6 | 0.30 | 0.08 | 0.08 | 98 | 1017.1 |
| 20260831154504 | 22 | 260 | 0.0 | 0.0 | 0.00 | 0.03 | 0.03 | 98 | 1017.2 |
| 20260831154003 | 22 | 278 | 0.0 | 0.0 | 0.13 | 0.03 | 0.03 | 96 | 1017.6 |
| 20260831153457 | 22 | 232 | 1.6 | 3.2 | 0.13 | 0.03 | 0.03 | 96 | 1017.7 |
| 20260831152954 | 22 | 243 | 1.6 | 1.6 | 0.00 | 0.00 | 0.00 | 95 | 1017.6 |
| 20260831152449 | 22 | 231 | 0.0 | 0.0 | 0.00 | 0.00 | 0.00 | 94 | 1017.7 |
| 20260831151944 | 22 | 289 | 1.6 | 1.6 | 0.00 | 0.00 | 0.00 | 93 | 1017.7 |
| 20260831151443 | 23 | 307 | 0.0 | 0.0 | 0.00 | 0.00 | 0.00 | 93 | 1017.4 |
| 20260831150939 | 23 | 311 | 3.2 | 3.2 | 0.00 | 0.00 | 0.00 | 92 | 1016.9 |
| 20260831150434 | 23 | 285 | 3.2 | 3.2 | 0.00 | 0.00 | 0.00 | 91 | 1016.8 |
| 20260831145933 | 23 | 232 | 4.8 | 4.8 | 0.00 | 0.00 | 0.00 | 91 | 1016.4 |
| 20260831145430 | 23 | 249 | 1.6 | 1.6 | 0.00 | 0.00 | 0.00 | 91 | 1016.3 |
| 20260831144925 | 22 | 293 | 3.2 | 3.2 | 0.00 | 0.00 | 0.00 | 92 | 1016.4 |
| 20260831144415 | 22 | 276 | 4.8 | 8.0 | 0.00 | 0.00 | 0.00 | 92 | 1016.3 |
| 20260831143910 | 22 | 288 | 1.6 | 1.6 | 0.00 | 0.00 | 0.00 | 93 | 1016.2 |
| 20260831143405 | 22 | 292 | 0.0 | 0.0 | 0.00 | 0.00 | 0.00 | 93 | 1016.3 |